Regional Weather Roundup
Issued by NWS Tiyan, Guam

Home | Current Version | Previous Version | Text Only | Print | Product List | Glossary On
Versions: 1 2 3 4 5 6 7 8 9 10 11 12 13 14 15 16 17 18 19 20 21 22 23 24 25 26 27 28
000
ASGM40 PGUM 301312
RWRGUM
WEATHER ROUNDUP FOR THE MARIANAS
NATIONAL WEATHER SERVICE TIYAN GU
1100 PM CHST THU OCT 30 2014

GUZ001>004-301400-
MARIANA ISLANDS-

CITY           SKY/WX    TMP DP  RH WIND       PRES   REMARKS
GUAM AIRPORT   PTCLDY    79  75  89 SE7       29.82F
ANDERSEN AFB   LGT RAIN  77  75  94 SE13      29.82F
ROTA AIRPORT   NOT AVBL
TINIAN AP      NOT AVBL
SAIPAN AP      PTCLDY    81  75  83 E9        29.82S

$$




USA.gov is the U.S. government's official web portal to all federal, state and local government web resources and services.